Home   Weather   Maputo   Past weeks
Flag for Mozambique

Past Weather in Maputo, Mozambique — Yesterday and Last 2 Weeks

Now
68 °F

Partly sunny.


Feels Like: 68 °F
Forecast: 83 / 71 °F
Wind: 8 mph from Northwest

Location: Maputo / Mavalane

Current Time: Oct 23, 2019 at 11:00:31 am

Latest Report: Oct 23, 2019 at 10:00 am


Visibility: N/A

Pressure: 29.89 "Hg

Humidity: 94%

Dew Point: 66 °F

Location of MaputoLocation

Past Weather in Maputo — Graph

°F

Maputo Temperature Yesterday

Maximum temperature yesterday: 75 °F (at 12:00 am)
Minimum temperature yesterday: 64 °F (at 8:00 pm)
Average temperature yesterday: 67 °F

High & Low Weather Summary for the Past Weeks

 TemperatureHumidityPressure
High100 °F (Oct 20, 12:00 pm)100% (Oct 10, 12:00 am)30.33 "Hg (Oct 10, 12:00 am)
Low63 °F (Oct 12, 2:00 am)24% (Oct 20, 12:00 pm)29.68 "Hg (Oct 21, 3:00 pm)
Average74 °F72%30.02 "Hg
* Reported Oct 8 9:00 am — Oct 23 9:00 am, Maputo. Weather by CustomWeather, © 2019

Note: Actual official high and low records may vary slightly from our data, if they occured in-between our weather recording intervals... More about our weather records

Advertising

Maputo Weather History for the Previous 24 Hours

Scroll right to see more
 ConditionsComfort  
Time TempWeatherWind HumidityBarometerVisibility
9:00 am
Wed, Oct 23
66 °FDrizzle. Mostly cloudy.3 mph100%29.92 "Hg2 mi
8:00 am66 °FDrizzle. Mostly cloudy.9 mph94%29.92 "Hg2 mi
7:00 am66 °FDrizzle. Broken clouds.9 mph94%29.95 "Hg2 mi
6:00 am66 °FDrizzle. Broken clouds.6 mph94%29.89 "Hg2 mi
5:00 am66 °FPartly cloudy.5 mph94%29.89 "Hg4 mi
4:00 am66 °FPassing clouds.5 mph94%29.89 "HgN/A
3:00 am66 °FPassing clouds.5 mph94%29.92 "HgN/A
1:00 am66 °FPassing clouds.2 mph94%29.92 "HgN/A
12:00 am66 °FPartly cloudy.2 mph94%29.98 "HgN/A
11:00 pm
Tue, Oct 22
66 °FPartly cloudy.3 mph94%30.01 "HgN/A
10:00 pm66 °FPartly cloudy.2 mph94%30.01 "Hg4 mi
9:00 pm66 °FPassing clouds.1 mph94%30.04 "HgN/A
8:00 pm64 °FPartly cloudy.6 mph94%30.04 "Hg4 mi
6:00 pm66 °FPartly cloudy.8 mph94%30.01 "Hg3 mi
5:00 pm68 °FBroken clouds.8 mph88%30.01 "HgN/A
4:00 pm66 °FDrizzle. Broken clouds.6 mph88%30.01 "Hg3 mi
3:00 pm66 °FDrizzle. Broken clouds.9 mph88%30.04 "Hg2 mi
2:00 pm66 °FDrizzle. Broken clouds.12 mph88%30.04 "Hg3 mi
1:00 pm66 °FDrizzle. Broken clouds.12 mph94%30.07 "Hg3 mi
12:00 pm66 °FDrizzle. Broken clouds.12 mph94%30.07 "Hg3 mi
11:00 am66 °FDrizzle. Broken clouds.13 mph88%30.09 "Hg3 mi
Weather by CustomWeather, © 2019

See weather overview